[[{"header":{"parameterUnit":"m.s-1","parameterCategory":2,"la1":30.2991,"la2":30.254,"lo1":-89.0895,"lo2":-89.0444,"dy":0.0017,"dx":0.0017,"nx":28,"ny":28,"refTime":"2023-07-31T21:00:00:Z","depth":"0","parameterNumber":2,"parameterNumberName":"U-component_of_CURRENTS"},"data":[0,0,0,0,0,0,0,0,0,0,0,0,0,0,0,0,0,0,0,0,0,0,0,0,0,0,0,0,0,0,0,0,0,0,0,0,0,0,0,0,0,0,0,0,0,0,0,0,0,0,0,0,0,0,0,0,0,0,0.2792,0.2792,0,0.271,0.2708,0.2707,0.2653,0.2653,0.2653,0.2654,0.2588,0.2586,0.2584,0,0,0,0,0,0,0,0,0,0,0,0,0,0.2862,0.286,0.2792,0.2792,0.2791,0.271,0.2708,0.2706,0.2653,0.2653,0.2654,0.2654,0.2588,0.2586,0.2584,0,0,0,0,0,0,0,0,0,0,0,0,0,0.2804,0.286,0.2792,0.276,0.2757,0.271,0.2708,0.2706,0.2653,0.2653,0.2654,0.2654,0.2589,0.2586,0.2583,0.2555,0,0,0.2574,0.2572,0,0,0,0,0,0,0,0,0.2807,0.28,0.2765,0.2762,0.2759,0.2698,0.2709,0.2659,0.2653,0.2685,0.2654,0.2654,0.2631,0.2624,0.2597,0.2552,0.2549,0.2574,0.2572,0.257,0.2569,0,0,0,0,0,0,0,0.2811,0.2804,0.2752,0.2765,0.2761,0.2736,0.2728,0.2698,0.2651,0.2682,0.268,0.2682,0.2628,0.26,0.2595,0.2548,0.2574,0.2571,0.2569,0.2568,0.2566,0.2568,0,0,0,0,0,0,0.2837,0.2807,0.2755,0.275,0.2793,0.2735,0.2726,0.2711,0.2651,0.2644,0.2681,0.268,0.2605,0.2599,0.2593,0.262,0.257,0.2567,0.2566,0.2564,0.2567,0.2568,0,0,0,0,0,0,0.2839,0.2833,0.2758,0.2784,0.2774,0.2735,0.2718,0.271,0.269,0.2651,0.2643,0.2673,0.2605,0.2597,0.2576,0.2615,0.2566,0.2563,0.2562,0.2565,0.2568,0.2634,0,0,0,0,0,0,0.2841,0.2833,0.2824,0.2785,0.2773,0.2741,0.2718,0.2708,0.2694,0.2691,0.2642,0.2635,0.2605,0.2581,0.2573,0.261,0.2561,0.256,0.2563,0.2567,0.2629,0.2638,0.2646,0,0,0,0,0,0.2843,0.2833,0.2823,0.2818,0.2764,0.2742,0.2733,0.2702,0.2694,0.2686,0.2655,0.2637,0.2598,0.2578,0.2569,0.2606,0.2558,0.2562,0.2566,0.2625,0.2636,0.2646,0,0,0,0,0,0,0.2857,0.2826,0.2815,0.2795,0.2778,0.2736,0.2725,0.2709,0.2675,0.2673,0.2635,0.2626,0.263,0.2608,0.2587,0.2621,0.2586,0.2588,0.2634,0.2644,0.2652,0.2697,0.2558,0,0,0,0,0,0.2859,0.284,0.2817,0.2801,0.2795,0.2762,0.2748,0.2731,0.2703,0.2687,0.2658,0.264,0.2637,0.263,0.2613,0.2613,0.2643,0.2642,0.265,0.2657,0.2691,0.2799,0.2821,0.2582,0.2582,0.2582,0,0,0.286,0.2842,0.283,0.2803,0.2783,0.2773,0.2752,0.2738,0.2738,0.2687,0.2672,0.2659,0.2643,0.265,0.2652,0.2636,0.273,0.2662,0.2668,0.2699,0.2806,0.283,0.2851,0.2585,0.2584,0.2584,0,0,0.2851,0.2839,0.2818,0.2811,0.2794,0.2783,0.2787,0.2755,0.2751,0.2732,0.2718,0.2739,0.2692,0.2717,0.2719,0.2768,0.277,0.2757,0.2835,0.2939,0.2961,0.298,0.3002,0.3023,0.2765,0.2765,0.2765,0,0.2853,0.2823,0.2812,0.2799,0.2802,0.2794,0.2789,0.2784,0.2752,0.2773,0.2739,0.2759,0.2739,0.2803,0.2821,0.2791,0.2821,0.2791,0.2953,0.2973,0.2992,0.301,0.3033,0.2768,0.2768,0.2768,0.2767,0,0.2821,0.2811,0.2806,0.2789,0.2795,0.279,0.2801,0.2812,0.281,0.2817,0.2869,0.2855,0.2884,0.2885,0.2858,0.2988,0.2952,0.2949,0.293,0.3021,0.3032,0.3055,0.2774,0.2772,0.2771,0.277,0,0,0.2786,0.2781,0.278,0.2787,0.2793,0.28,0.2831,0.2866,0.2917,0.2911,0.2979,0.2998,0.3022,0.3031,0.3027,0.3115,0.3246,0.3091,0.3095,0.3117,0.3429,0.316,0.3157,0.3277,0.3282,0.3286,0.3366,0,0.2761,0.2746,0.2755,0.2769,0.277,0.2808,0.285,0.2897,0.2934,0.3,0.3051,0.3103,0.3069,0.3099,0.3187,0.3235,0.3316,0.3221,0.3336,0.3339,0.3094,0.3179,0.2941,0.2973,0.3388,0.3392,0.3394,0,0.2715,0.272,0.272,0.2783,0.2792,0.2813,0.2913,0.2949,0.3059,0.3098,0.3183,0.3214,0.3331,0.3294,0.3455,0.3395,0.3431,0.3463,0.3467,0.3219,0.3113,0.296,0.2997,0.2948,0.3428,0.3425,0.3423,0,0.2685,0.2704,0.2712,0.2722,0.2784,0.2822,0.2873,0.2979,0.3043,0.3176,0.3239,0.3365,0.3423,0.3531,0.3542,0.3538,0.3691,0.3693,0.3485,0.3464,0.3285,0.3237,0.3297,0.3845,0.3845,0.3845,0.3845,0,0.2647,0.2658,0.2703,0.2705,0.2769,0.2819,0.2912,0.2988,0.3109,0.32,0.3294,0.3375,0.3498,0.3563,0.36,0.3563,0.3738,0.3518,0.3489,0.3287,0.3241,0.3205,0.3192,0.3848,0.3847,0.3847,0.3846,0,0.2605,0.2619,0.2647,0.2717,0.2746,0.2798,0.292,0.3005,0.311,0.3232,0.328,0.3416,0.3475,0.3521,0.3656,0.3589,0.3481,0.356,0.325,0.318,0.2893,0.2889,0.277,0.2718,0.3375,0.3369,0.3364,0,0.2574,0.2577,0.2652,0.27,0.2731,0.2813,0.2888,0.2996,0.3079,0.3238,0.3297,0.3377,0.3386,0.3403,0.3311,0.3271,0.3269,0.3029,0.2982,0.285,0.2832,0.274,0.2705,0.2776,0.2766,0.2759,0.2753,0,0.2553,0.2582,0.2634,0.2719,0.2791,0.2845,0.2941,0.2995,0.312,0.318,0.3238,0.3246,0.3183,0.2989,0.2871,0.2838,0.2821,0.2862,0.2874,0.2477,0.2246,0.2187,0.2707,0.2684,0.2691,0.2696,0.27,0.2703,0.2566,0.261,0.2693,0.2766,0.2837,0.2866,0.2856,0.2937,0.2983,0.2986,0.309,0.2954,0.2772,0.2537,0.2476,0.2193,0.2317,0.2122,0.2163,0.211,0.1945,0.2234,0.2069,0.2072,0.2075,0.2077,0.2079,0,0.2569,0.264,0.2739,0.2797,0.2821,0.2848,0.2882,0.2812,0.2764,0.2747,0.2696,0.2403,0.2158,0.2001,0.1692,0.1554,0.1536,0.1522,0.1447,0.1485,0.1883,0.174,0.1313,0.1313,0.1314,0.1314,0.1314,0.1314,0.259,0.2668,0.2715,0.2752,0.2765,0.2664,0.2619,0.252,0.2437,0.2183,0.1943,0.1865,0.1715,0.1442,0.1214,0.1173,0.1171,0.0954,0.1135,0.1507,0.1571,0.1631,0.1499,0.103,0.1029,0.0634,0.0631,0.0629]},{"header":{"parameterUnit":"m.s-1","parameterCategory":2,"la1":30.2991,"la2":30.254,"lo1":-89.0895,"lo2":-89.0444,"dy":0.0017,"dx":0.0017,"nx":28,"ny":28,"refTime":"2023-07-31T21:00:00:Z","depth":"0","parameterNumber":3,"parameterNumberName":"V-component_of_CURRENTS"},"data":[0,0,0,0,0,0,0,0,0,0,0,0,0,0,0,0,0,0,0,0,0,0,0,0,0,0,0,0,0,0,0,0,0,0,0,0,0,0,0,0,0,0,0,0,0,0,0,0,0,0,0,0,0,0,0,0,0,0,0.0301,0.0301,0,0.0294,0.0294,0.0293,0.0281,0.0281,0.0281,0.0281,0.0272,0.0272,0.0272,0,0,0,0,0,0,0,0,0,0,0,0,0,0.0283,0.0284,0.0301,0.0301,0.0301,0.0294,0.0294,0.0293,0.0281,0.0281,0.0281,0.0281,0.0272,0.0272,0.0272,0,0,0,0,0,0,0,0,0,0,0,0,0,0.0284,0.0284,0.0301,0.0295,0.0294,0.0294,0.0294,0.0293,0.0281,0.0281,0.0281,0.0281,0.0272,0.0272,0.0272,0.0275,0,0,0.0271,0.0271,0,0,0,0,0,0,0,0,0.0284,0.0285,0.0296,0.0295,0.0295,0.0289,0.0284,0.0287,0.0281,0.0285,0.0281,0.0281,0.0278,0.0278,0.0275,0.0274,0.0274,0.0271,0.0271,0.0271,0.0271,0,0,0,0,0,0,0,0.0284,0.0285,0.0297,0.0296,0.0295,0.0285,0.0285,0.0285,0.0282,0.0285,0.0284,0.0285,0.0278,0.0276,0.0275,0.0274,0.0271,0.0271,0.0271,0.0271,0.0315,0.0316,0,0,0,0,0,0,0.0289,0.0285,0.0297,0.0297,0.029,0.0286,0.0286,0.029,0.0282,0.0281,0.0285,0.0284,0.0276,0.0275,0.0275,0.0305,0.0271,0.0271,0.0271,0.0313,0.0315,0.0316,0,0,0,0,0,0,0.0288,0.029,0.0298,0.0291,0.0292,0.0287,0.0292,0.029,0.0288,0.0283,0.0281,0.0285,0.0276,0.0275,0.028,0.0303,0.0271,0.0271,0.0312,0.0314,0.0316,0.0347,0,0,0,0,0,0,0.0288,0.029,0.0292,0.0292,0.0292,0.0304,0.0292,0.029,0.029,0.0288,0.0282,0.0281,0.0276,0.028,0.028,0.0302,0.0271,0.031,0.0313,0.0315,0.0345,0.035,0.0355,0,0,0,0,0,0.0287,0.0294,0.0292,0.0294,0.0297,0.0304,0.0304,0.0298,0.029,0.0294,0.029,0.0281,0.0296,0.0281,0.028,0.0303,0.0309,0.0312,0.0315,0.0342,0.0349,0.0355,0,0,0,0,0,0,0.0281,0.0294,0.0292,0.03,0.0304,0.0303,0.0305,0.03,0.0299,0.0298,0.0288,0.0287,0.0303,0.0299,0.0283,0.0325,0.0305,0.0308,0.0326,0.0332,0.0337,0.037,0.0271,0,0,0,0,0,0.0283,0.0296,0.03,0.0307,0.0311,0.0307,0.0308,0.0307,0.0306,0.0305,0.0302,0.0305,0.0315,0.0319,0.0325,0.034,0.0357,0.0359,0.0364,0.0368,0.0396,0.0461,0.0475,0.0326,0.0326,0.0326,0,0,0.0282,0.0291,0.0296,0.0307,0.0309,0.0323,0.0307,0.0314,0.0325,0.0305,0.0317,0.0319,0.0323,0.0344,0.0352,0.0342,0.0409,0.0371,0.0375,0.0401,0.0466,0.0481,0.0494,0.0328,0.0327,0.0327,0,0,0.0292,0.0295,0.0311,0.0321,0.0331,0.0333,0.0336,0.034,0.034,0.0351,0.0347,0.037,0.0368,0.039,0.0397,0.0436,0.0433,0.043,0.0481,0.0544,0.0557,0.0569,0.0563,0.0575,0.0433,0.0433,0.0433,0,0.0288,0.0313,0.0315,0.0336,0.0346,0.034,0.0359,0.0361,0.0365,0.0385,0.0361,0.0411,0.0401,0.0456,0.0464,0.045,0.0462,0.0453,0.0552,0.0564,0.0576,0.0568,0.058,0.0435,0.0435,0.0435,0.0434,0,0.0315,0.0335,0.0346,0.0374,0.0382,0.0399,0.0405,0.0415,0.0413,0.0432,0.048,0.048,0.0521,0.0513,0.0494,0.0576,0.0545,0.0548,0.0536,0.0593,0.058,0.0592,0.0438,0.0437,0.0436,0.0436,0,0,0.0308,0.0357,0.0361,0.0386,0.0406,0.0421,0.0439,0.0474,0.0519,0.0523,0.0595,0.06,0.0622,0.0634,0.0625,0.0667,0.0726,0.0641,0.0644,0.0635,0.0822,0.0758,0.0764,0.0749,0.0753,0.0755,0.0761,0,0.033,0.0381,0.0396,0.0441,0.0468,0.0475,0.0503,0.0534,0.0566,0.0635,0.0657,0.0721,0.0662,0.0696,0.073,0.0746,0.0768,0.0722,0.077,0.0771,0.0709,0.0782,0.0772,0.0775,0.0773,0.0775,0.0777,0,0.0353,0.0388,0.0437,0.0495,0.0507,0.0532,0.0597,0.0625,0.071,0.0743,0.0814,0.0845,0.0908,0.0858,0.091,0.0883,0.0858,0.0852,0.0853,0.0804,0.0734,0.0729,0.0797,0.0794,0.0795,0.0794,0.0792,0,0.0361,0.0417,0.0461,0.0479,0.0538,0.0562,0.0593,0.0666,0.0727,0.0836,0.0919,0.0979,0.1046,0.1041,0.1003,0.0975,0.1054,0.1016,0.0925,0.0916,0.0926,0.0914,0.1007,0.1064,0.1064,0.1064,0.1064,0,0.0386,0.0424,0.0471,0.0501,0.056,0.0589,0.0679,0.0718,0.0831,0.0957,0.099,0.1107,0.1107,0.1143,0.107,0.1034,0.1104,0.0959,0.0941,0.0928,0.0917,0.0926,0.0916,0.1064,0.1064,0.1064,0.1064,0,0.0401,0.043,0.0487,0.0549,0.0569,0.0613,0.0719,0.0808,0.0896,0.1068,0.1118,0.1234,0.1279,0.123,0.1235,0.1136,0.1085,0.1051,0.0994,0.0971,0.0864,0.0854,0.0923,0.0954,0.0964,0.0963,0.0962,0,0.0421,0.0453,0.0517,0.0554,0.0585,0.0659,0.0729,0.0824,0.0939,0.1154,0.1256,0.1356,0.1441,0.1382,0.1239,0.1102,0.1081,0.0985,0.0938,0.0886,0.0864,0.0854,0.0877,0.0938,0.0937,0.0936,0.0935,0,0.0467,0.0483,0.0531,0.0599,0.0667,0.0758,0.0871,0.0967,0.1127,0.128,0.1481,0.1564,0.1519,0.1413,0.121,0.1102,0.0997,0.096,0.0968,0.0914,0.0857,0.0868,0.0851,0.0927,0.0928,0.0929,0.0929,0.0929,0.0499,0.0536,0.0594,0.0659,0.0741,0.0864,0.0959,0.1108,0.1294,0.1536,0.1604,0.1713,0.1559,0.1295,0.1167,0.0925,0.095,0.0846,0.085,0.0853,0.0871,0.0796,0.0815,0.0815,0.0815,0.0815,0.0815,0,0.0536,0.0586,0.0656,0.0747,0.0851,0.0887,0.1068,0.119,0.141,0.1587,0.1742,0.1683,0.15,0.1281,0.0966,0.0845,0.0832,0.0793,0.0816,0.0856,0.0848,0.0835,0.0787,0.0787,0.0787,0.0787,0.0787,0.0787,0.0564,0.0634,0.0671,0.0833,0.0909,0.1062,0.1172,0.135,0.1486,0.1671,0.1698,0.1717,0.1574,0.1129,0.0889,0.083,0.0842,0.077,0.0815,0.0822,0.0828,0.0834,0.0823,0.0773,0.0773,0.0844,0.0845,0.0845]}],[{"header":{"parameterUnit":"m.s-1","parameterCategory":2,"la1":30.2991,"la2":30.254,"lo1":-89.0895,"lo2":-89.0444,"dy":0.0017,"dx":0.0017,"nx":28,"ny":28,"refTime":"2023-07-31T21:00:00:Z","depth":"2","parameterNumber":2,"parameterNumberName":"U-component_of_CURRENTS"},"data":[0,0,0,0,0,0,0,0,0,0,0,0,0,0,0,0,0,0,0,0,0,0,0,0,0,0,0,0,0,0,0,0,0,0,0,0,0,0,0,0,0,0,0,0,0,0,0,0,0,0,0,0,0,0,0,0,0,0,0.202,0.202,0,0.1963,0.1962,0.1961,0.1978,0.198,0.1982,0.1984,0.2035,0.2035,0.2034,0,0,0,0,0,0,0,0,0,0,0,0,0,0.2054,0.2053,0.202,0.202,0.202,0.1964,0.1962,0.196,0.1978,0.198,0.1982,0.1985,0.2035,0.2035,0.2034,0,0,0,0,0,0,0,0,0,0,0,0,0,0.2014,0.2053,0.202,0.2028,0.2029,0.1964,0.1962,0.196,0.1977,0.198,0.1983,0.1986,0.2035,0.2035,0.2034,0.1969,0,0,0.2032,0.2031,0,0,0,0,0,0,0,0,0.2017,0.2012,0.2027,0.2028,0.2029,0.1989,0.1993,0.1972,0.1976,0.1987,0.1984,0.1987,0.2033,0.2033,0.2001,0.1972,0.1974,0.2032,0.2031,0.2031,0.2031,0,0,0,0,0,0,0,0.202,0.2014,0.1988,0.2027,0.2028,0.2006,0.2003,0.1988,0.1989,0.1987,0.199,0.1997,0.2034,0.2002,0.2003,0.1975,0.2032,0.2031,0.203,0.203,0.2041,0.2042,0,0,0,0,0,0,0.2045,0.2017,0.199,0.1988,0.204,0.2004,0.2,0.1991,0.1987,0.1991,0.1994,0.1998,0.2001,0.2004,0.2005,0.2075,0.2031,0.203,0.203,0.204,0.2041,0.2042,0,0,0,0,0,0,0.2046,0.2043,0.1993,0.2009,0.2003,0.2001,0.199,0.1989,0.1997,0.1993,0.1998,0.2011,0.2004,0.2006,0.2023,0.2073,0.203,0.2029,0.2039,0.204,0.2042,0.2122,0,0,0,0,0,0,0.2047,0.2042,0.2044,0.201,0.2003,0.1993,0.1988,0.1986,0.1999,0.2004,0.2008,0.2014,0.2006,0.2025,0.2023,0.2071,0.2029,0.2038,0.204,0.2041,0.2118,0.2126,0.2132,0,0,0,0,0,0.2048,0.2043,0.2043,0.2041,0.2004,0.1995,0.1989,0.1991,0.1998,0.2007,0.2006,0.2016,0.2033,0.2023,0.2021,0.2071,0.2038,0.2039,0.2041,0.2115,0.2124,0.2132,0,0,0,0,0,0,0.2063,0.2044,0.2044,0.2035,0.2036,0.2003,0.2006,0.2005,0.2002,0.2015,0.2009,0.2013,0.2053,0.2036,0.2026,0.2076,0.2043,0.2044,0.21,0.2108,0.2115,0.2167,0.2028,0,0,0,0,0,0.2065,0.2055,0.2045,0.2042,0.2044,0.2026,0.2023,0.2029,0.2023,0.2025,0.2031,0.2036,0.2044,0.2059,0.2059,0.2071,0.2096,0.2104,0.2111,0.2117,0.2157,0.2228,0.2246,0.2047,0.2047,0.2047,0,0,0.2067,0.2061,0.2053,0.2045,0.2037,0.2036,0.2031,0.2041,0.205,0.203,0.205,0.206,0.2051,0.2078,0.2095,0.208,0.218,0.2119,0.2125,0.2162,0.2232,0.2252,0.2269,0.2048,0.2048,0.2048,0,0,0.2069,0.2066,0.2058,0.2059,0.2068,0.2061,0.2077,0.2069,0.2081,0.2087,0.2092,0.2134,0.2121,0.2146,0.2149,0.2187,0.2213,0.2191,0.2273,0.234,0.2359,0.2375,0.2411,0.243,0.2196,0.2196,0.2196,0,0.2072,0.2061,0.206,0.2058,0.2061,0.208,0.208,0.2086,0.2092,0.2119,0.2114,0.2168,0.2156,0.2225,0.2242,0.221,0.2246,0.2243,0.2354,0.2371,0.2386,0.2419,0.2439,0.22,0.22,0.2199,0.2199,0,0.2064,0.2063,0.2064,0.2064,0.2071,0.2079,0.2095,0.2131,0.2151,0.2166,0.2251,0.2255,0.2304,0.2305,0.2281,0.2396,0.2384,0.2355,0.2342,0.2412,0.244,0.246,0.2206,0.2205,0.2203,0.2202,0,0,0.2045,0.2051,0.2055,0.2069,0.2075,0.2091,0.2122,0.2166,0.2219,0.2265,0.2344,0.2381,0.2434,0.2443,0.2454,0.2518,0.263,0.2498,0.2499,0.255,0.2783,0.2503,0.2496,0.2637,0.2642,0.2645,0.2751,0,0.2038,0.2034,0.2042,0.2068,0.2068,0.2108,0.2134,0.2189,0.2239,0.2325,0.2404,0.2474,0.247,0.2521,0.2593,0.2612,0.2691,0.2605,0.2694,0.2697,0.2454,0.2513,0.2315,0.237,0.277,0.2773,0.2776,0,0.2025,0.2026,0.2027,0.2076,0.2085,0.2118,0.2205,0.2232,0.2349,0.2392,0.2518,0.2582,0.2706,0.2684,0.2825,0.2777,0.281,0.2828,0.2832,0.2566,0.2453,0.2368,0.239,0.2808,0.2806,0.2803,0.2801,0,0.2011,0.2031,0.2038,0.2045,0.209,0.2139,0.2182,0.2268,0.2318,0.2467,0.2541,0.2691,0.2776,0.2868,0.2888,0.2889,0.3013,0.2999,0.2798,0.2778,0.2623,0.2578,0.314,0.314,0.314,0.3139,0.3139,0,0.1993,0.2007,0.2049,0.206,0.2114,0.2144,0.2233,0.2294,0.2399,0.2477,0.2599,0.2701,0.2837,0.2912,0.2939,0.2889,0.3051,0.2835,0.2795,0.2633,0.259,0.298,0.296,0.3143,0.3142,0.3142,0.3141,0,0.1967,0.1979,0.2018,0.2085,0.2107,0.2159,0.2258,0.2313,0.2411,0.2527,0.2589,0.2743,0.2801,0.2869,0.2975,0.2905,0.2904,0.2856,0.2621,0.2547,0.2632,0.2615,0.2681,0.2672,0.2664,0.2658,0.2653,0,0.1942,0.1961,0.2038,0.2077,0.2118,0.2191,0.222,0.2308,0.2375,0.2537,0.2598,0.2705,0.2727,0.2718,0.264,0.2594,0.2737,0.2361,0.2303,0.2635,0.2591,0.2585,0.2579,0.2157,0.2148,0.2141,0.2135,0,0.1911,0.1958,0.2009,0.207,0.2128,0.2195,0.2273,0.2307,0.2407,0.2462,0.2535,0.2557,0.2531,0.235,0.2229,0.219,0.2331,0.22,0.2674,0.2236,0.213,0.2089,0.2104,0.2071,0.2077,0.2082,0.2085,0.2088,0.1924,0.1936,0.1992,0.2098,0.216,0.2201,0.2188,0.2246,0.2272,0.2275,0.2368,0.226,0.2224,0.19,0.1798,0.1706,0.1883,0.181,0.184,0.1877,0.1729,0.1608,0.1425,0.1428,0.143,0.1432,0.1434,0,0.1862,0.1911,0.1986,0.2056,0.2092,0.2166,0.2204,0.2122,0.2054,0.205,0.2001,0.1728,0.1544,0.1524,0.1278,0.119,0.128,0.1134,0.128,0.1341,0.1396,0.1233,0.0794,0.0792,0.0791,0.0789,0,0,0.1817,0.1826,0.1871,0.1954,0.2025,0.1971,0.1967,0.1844,0.1791,0.1609,0.1489,0.149,0.1488,0.1156,0.1057,0.0902,0.1141,0.0852,0.1363,0.1601,0.1655,0.1766,0.1575,0,0,0,0,0]},{"header":{"parameterUnit":"m.s-1","parameterCategory":2,"la1":30.2991,"la2":30.254,"lo1":-89.0895,"lo2":-89.0444,"dy":0.0017,"dx":0.0017,"nx":28,"ny":28,"refTime":"2023-07-31T21:00:00:Z","depth":"2","parameterNumber":3,"parameterNumberName":"V-component_of_CURRENTS"},"data":[0,0,0,0,0,0,0,0,0,0,0,0,0,0,0,0,0,0,0,0,0,0,0,0,0,0,0,0,0,0,0,0,0,0,0,0,0,0,0,0,0,0,0,0,0,0,0,0,0,0,0,0,0,0,0,0,0,0,0.013,0.013,0,0.0126,0.0126,0.0126,0.0124,0.0124,0.0125,0.0125,0.0125,0.0125,0.0125,0,0,0,0,0,0,0,0,0,0,0,0,0,0.0104,0.0104,0.013,0.013,0.013,0.0126,0.0126,0.0126,0.0124,0.0124,0.0125,0.0125,0.0125,0.0125,0.0125,0,0,0,0,0,0,0,0,0,0,0,0,0,0.0108,0.0105,0.013,0.013,0.013,0.0126,0.0126,0.0126,0.0124,0.0124,0.0125,0.0125,0.0125,0.0125,0.0125,0.0121,0,0,0.0125,0.0125,0,0,0,0,0,0,0,0,0.0108,0.0109,0.013,0.013,0.013,0.0127,0.0117,0.0125,0.0124,0.0125,0.0125,0.0125,0.0127,0.0127,0.0124,0.0121,0.0121,0.0125,0.0125,0.0125,0.0125,0,0,0,0,0,0,0,0.0108,0.0109,0.0127,0.013,0.013,0.0119,0.012,0.0118,0.0124,0.0125,0.0125,0.0127,0.0127,0.0124,0.0124,0.0121,0.0125,0.0125,0.0125,0.0124,0.0137,0.0137,0,0,0,0,0,0,0.0112,0.0109,0.0128,0.0127,0.012,0.012,0.0121,0.0127,0.0124,0.0124,0.0127,0.0127,0.0124,0.0124,0.0124,0.0143,0.0125,0.0124,0.0124,0.0137,0.0137,0.0138,0,0,0,0,0,0,0.0112,0.0114,0.0128,0.0119,0.012,0.012,0.0127,0.0127,0.0127,0.0126,0.0125,0.0128,0.0124,0.0124,0.0126,0.0142,0.0124,0.0124,0.0136,0.0137,0.0137,0.0166,0,0,0,0,0,0,0.0111,0.0114,0.0119,0.0119,0.012,0.0131,0.0127,0.0127,0.0128,0.0128,0.0127,0.0127,0.0124,0.0127,0.0126,0.0142,0.0124,0.0136,0.0136,0.0137,0.0164,0.0167,0.017,0,0,0,0,0,0.011,0.012,0.0119,0.0121,0.0128,0.0131,0.0131,0.013,0.0128,0.0131,0.0129,0.0127,0.0132,0.0127,0.0126,0.0142,0.0135,0.0136,0.0137,0.0163,0.0167,0.017,0,0,0,0,0,0,0.0109,0.0121,0.012,0.0132,0.0133,0.0132,0.0135,0.0132,0.0132,0.0133,0.0128,0.0128,0.0137,0.0133,0.0128,0.0148,0.0135,0.0136,0.0155,0.0158,0.0161,0.0189,0.0124,0,0,0,0,0,0.0112,0.0123,0.0127,0.0136,0.0138,0.0135,0.0136,0.0136,0.0136,0.0136,0.0135,0.0136,0.014,0.0143,0.0144,0.0152,0.0164,0.0163,0.0165,0.0168,0.0191,0.0231,0.024,0.0141,0.0141,0.0141,0,0,0.0112,0.0121,0.0126,0.0136,0.0137,0.0145,0.0136,0.0142,0.0147,0.0137,0.0144,0.0144,0.0143,0.0155,0.0159,0.0154,0.0196,0.0169,0.0171,0.0193,0.0233,0.0243,0.0252,0.0141,0.0141,0.0141,0,0,0.0123,0.0129,0.0142,0.0147,0.0154,0.0153,0.0156,0.0158,0.0157,0.0161,0.016,0.0174,0.0168,0.0182,0.0185,0.0204,0.0208,0.0198,0.0239,0.0277,0.0286,0.0294,0.0295,0.0303,0.0201,0.0202,0.0202,0,0.0123,0.0143,0.0145,0.0159,0.0166,0.0159,0.0172,0.017,0.0171,0.0185,0.0168,0.0201,0.0188,0.0228,0.0228,0.0213,0.0224,0.0225,0.0282,0.0291,0.0299,0.0298,0.0307,0.0203,0.0203,0.0203,0.0203,0,0.0144,0.016,0.0169,0.0187,0.0191,0.0202,0.0201,0.0206,0.0204,0.0214,0.0249,0.0245,0.0277,0.0264,0.0246,0.0301,0.0284,0.028,0.0277,0.0311,0.0307,0.0316,0.0205,0.0205,0.0204,0.0204,0,0,0.0147,0.0178,0.0182,0.02,0.0209,0.0219,0.0227,0.0247,0.0283,0.028,0.0339,0.0329,0.0351,0.0358,0.0351,0.0372,0.0409,0.035,0.0351,0.0357,0.0475,0.0408,0.0411,0.042,0.0423,0.0424,0.0439,0,0.0164,0.0201,0.0209,0.0241,0.0259,0.026,0.0275,0.0293,0.0316,0.037,0.0382,0.0434,0.038,0.0416,0.0427,0.0427,0.0439,0.0405,0.0437,0.0438,0.0381,0.0422,0.0422,0.0432,0.0447,0.0449,0.045,0,0.0182,0.0208,0.0243,0.0283,0.0292,0.0309,0.0357,0.0374,0.0435,0.0461,0.052,0.0547,0.0588,0.0543,0.0562,0.0545,0.0515,0.05,0.05,0.0443,0.0389,0.0406,0.0447,0.0464,0.0463,0.0462,0.0461,0,0.0193,0.0233,0.0265,0.0277,0.0316,0.0336,0.0357,0.0408,0.0459,0.0546,0.0625,0.0659,0.0719,0.0691,0.064,0.0618,0.0653,0.062,0.053,0.0523,0.0534,0.0524,0.0644,0.0644,0.0644,0.0644,0.0643,0,0.0213,0.0241,0.0276,0.0299,0.0347,0.0363,0.0436,0.0465,0.0559,0.067,0.0692,0.0799,0.0767,0.0783,0.0697,0.0637,0.0698,0.0554,0.0538,0.0537,0.0528,0.0569,0.056,0.0644,0.0644,0.0644,0.0644,0,0.0225,0.0246,0.0291,0.0339,0.0356,0.0392,0.0481,0.0553,0.0631,0.0789,0.0836,0.0928,0.0941,0.0871,0.0836,0.0732,0.0662,0.0621,0.0596,0.0576,0.0488,0.048,0.0537,0.0535,0.0533,0.0532,0.0531,0,0.0236,0.0262,0.0319,0.035,0.0376,0.0435,0.0492,0.0575,0.0684,0.0876,0.0979,0.1046,0.1099,0.0988,0.0831,0.0674,0.0655,0.0558,0.0511,0.0506,0.0485,0.0479,0.0474,0.0527,0.0526,0.0525,0.0525,0,0.0261,0.0281,0.0319,0.0379,0.044,0.0531,0.0637,0.0736,0.0881,0.1019,0.1199,0.1247,0.1162,0.1015,0.0786,0.0673,0.0574,0.0532,0.0588,0.0536,0.0494,0.0473,0.0469,0.0517,0.0518,0.0518,0.0519,0.0519,0.028,0.0307,0.0353,0.0428,0.0502,0.0644,0.0739,0.0883,0.106,0.1267,0.1299,0.1333,0.1187,0.087,0.0703,0.0517,0.053,0.0442,0.0447,0.0452,0.0431,0.0387,0.0384,0.0384,0.0384,0.0384,0.0384,0,0.0295,0.0344,0.0401,0.0507,0.0617,0.0656,0.0853,0.0968,0.1184,0.1288,0.1384,0.1201,0.1037,0.0852,0.0577,0.0414,0.0419,0.0348,0.0398,0.0407,0.0414,0.0392,0.0334,0.0334,0.0333,0.0333,0,0,0.0308,0.0364,0.0413,0.0603,0.0692,0.086,0.0987,0.1135,0.1231,0.1318,0.1298,0.1249,0.1052,0.0829,0.0634,0.0487,0.0479,0.0448,0.0504,0.0595,0.0604,0.0481,0.0458,0,0,0,0,0]}],[{"header":{"parameterUnit":"m.s-1","parameterCategory":2,"la1":30.2991,"la2":30.254,"lo1":-89.0895,"lo2":-89.0444,"dy":0.0017,"dx":0.0017,"nx":28,"ny":28,"refTime":"2023-07-31T21:00:00:Z","depth":"4","parameterNumber":2,"parameterNumberName":"U-component_of_CURRENTS"},"data":[0,0,0,0,0,0,0,0,0,0,0,0,0,0,0,0,0,0,0,0,0,0,0,0,0,0,0,0,0,0,0,0,0,0,0,0,0,0,0,0,0,0,0,0,0,0,0,0,0,0,0,0,0,0,0,0,0,0,0.0858,0.0859,0,0.0884,0.0884,0.0884,0.0939,0.0941,0.0942,0.0944,0.1018,0.1018,0.1019,0,0,0,0,0,0,0,0,0,0,0,0,0,0.0842,0.0842,0.0858,0.0859,0.086,0.0884,0.0884,0.0884,0.0939,0.0941,0.0942,0.0944,0.1017,0.1018,0.1019,0,0,0,0,0,0,0,0,0,0,0,0,0,0.0853,0.0842,0.0858,0.0893,0.0896,0.0884,0.0884,0.0884,0.0939,0.0941,0.0943,0.0945,0.1017,0.1018,0.1019,0.0981,0,0,0.1022,0.1022,0,0,0,0,0,0,0,0,0.0852,0.0853,0.0887,0.0891,0.0895,0.0914,0.0906,0.092,0.0938,0.0919,0.0944,0.0946,0.0988,0.0991,0.0985,0.0984,0.0987,0.1022,0.1022,0.1023,0.1023,0,0,0,0,0,0,0,0.0852,0.0852,0.0865,0.0888,0.0892,0.0902,0.0906,0.0908,0.0939,0.0921,0.0926,0.0933,0.099,0.0984,0.0988,0.0988,0.1022,0.1023,0.1023,0.1023,0.1066,0.1066,0,0,0,0,0,0,0.0854,0.0851,0.0864,0.0866,0.0883,0.0901,0.0905,0.0902,0.0938,0.0946,0.0932,0.0936,0.0982,0.0987,0.0991,0.1059,0.1023,0.1024,0.1024,0.1065,0.1066,0.1067,0,0,0,0,0,0,0.0853,0.0854,0.0863,0.0863,0.0865,0.0899,0.0896,0.0902,0.0937,0.0946,0.0955,0.0966,0.0984,0.099,0.102,0.1059,0.1024,0.1025,0.1065,0.1065,0.1066,0.1124,0,0,0,0,0,0,0.0852,0.0853,0.0866,0.0863,0.0866,0.0881,0.0894,0.0901,0.0938,0.0945,0.0978,0.0985,0.0986,0.1019,0.1021,0.1059,0.1025,0.1064,0.1065,0.1066,0.1122,0.1127,0.1132,0,0,0,0,0,0.0851,0.0852,0.0866,0.0869,0.0877,0.0882,0.0885,0.0914,0.0938,0.0953,0.0975,0.0986,0.1028,0.102,0.1022,0.1062,0.1063,0.1065,0.1066,0.112,0.1126,0.1132,0,0,0,0,0,0,0.0854,0.0858,0.0873,0.0878,0.0895,0.0894,0.0911,0.0931,0.0957,0.0974,0.0986,0.0994,0.1043,0.1032,0.1022,0.1075,0.105,0.1052,0.109,0.1096,0.1101,0.1066,0.1026,0,0,0,0,0,0.0858,0.0865,0.0872,0.0883,0.0889,0.0906,0.0919,0.0939,0.0955,0.0971,0.0993,0.1014,0.1039,0.1054,0.1069,0.1085,0.1091,0.1113,0.1118,0.1122,0.1094,0.1175,0.1185,0.1071,0.1071,0.1071,0,0,0.0862,0.0869,0.0874,0.0886,0.0897,0.0901,0.092,0.0945,0.0961,0.0973,0.1009,0.1039,0.105,0.1081,0.1101,0.1083,0.1154,0.1124,0.1128,0.1096,0.1177,0.1189,0.1199,0.1072,0.1072,0.1071,0,0,0.0863,0.0879,0.0882,0.0896,0.0923,0.0923,0.094,0.0957,0.0984,0.1005,0.1037,0.1083,0.1098,0.1125,0.1136,0.117,0.1187,0.1188,0.1178,0.1259,0.1269,0.1278,0.1287,0.1297,0.1181,0.1181,0.1181,0,0.0874,0.0874,0.0888,0.0897,0.0906,0.0935,0.0938,0.096,0.0993,0.1015,0.1024,0.1088,0.1113,0.1162,0.1172,0.1185,0.1207,0.1162,0.1268,0.1277,0.1286,0.1292,0.1302,0.1184,0.1184,0.1183,0.1183,0,0.0876,0.0884,0.0888,0.0902,0.0911,0.0924,0.0944,0.0973,0.1001,0.1026,0.1092,0.1121,0.1161,0.1187,0.1181,0.1259,0.1247,0.128,0.1258,0.1301,0.1304,0.1314,0.1188,0.1187,0.1186,0.1186,0,0,0.0873,0.0884,0.0891,0.0888,0.0916,0.0913,0.0944,0.0971,0.1008,0.1049,0.1097,0.1144,0.1186,0.1197,0.1234,0.1278,0.1361,0.1293,0.1296,0.1306,0.1496,0.1352,0.1347,0.1433,0.1435,0.1437,0.1469,0,0.0873,0.0872,0.0884,0.0883,0.0871,0.0904,0.0924,0.0963,0.1009,0.1067,0.1124,0.1191,0.1188,0.1235,0.128,0.1365,0.1389,0.1345,0.1444,0.1444,0.1319,0.1355,0.1444,0.1476,0.1478,0.148,0.1481,0,0.087,0.0864,0.0858,0.0853,0.0855,0.0874,0.0911,0.0937,0.1028,0.1078,0.1154,0.1212,0.1296,0.1293,0.1414,0.1395,0.1427,0.1463,0.1468,0.131,0.1318,0.1425,0.1497,0.1496,0.1495,0.1494,0.1493,0,0.0837,0.0841,0.083,0.0835,0.0842,0.0865,0.0885,0.0956,0.0991,0.1118,0.1175,0.1273,0.1357,0.1422,0.1479,0.1478,0.1586,0.1614,0.149,0.1479,0.1575,0.1565,0.1668,0.1668,0.1668,0.1668,0.1667,0,0.0816,0.0809,0.0825,0.0821,0.0818,0.0847,0.0887,0.0933,0.1027,0.1084,0.1199,0.1256,0.1402,0.1472,0.1501,0.1507,0.1618,0.1467,0.1484,0.1594,0.1586,0.1581,0.157,0.1669,0.1668,0.1668,0.1668,0,0.0776,0.0795,0.076,0.0777,0.0802,0.0797,0.0872,0.0898,0.1018,0.1104,0.1154,0.1289,0.1392,0.147,0.1586,0.1536,0.1561,0.1524,0.1586,0.161,0.1386,0.1379,0.1402,0.1397,0.1393,0.139,0.1387,0,0.0748,0.0734,0.0725,0.07,0.0718,0.0749,0.0775,0.0886,0.0926,0.1098,0.1123,0.1266,0.1345,0.1388,0.1467,0.1497,0.1475,0.1455,0.1436,0.1347,0.1363,0.1361,0.1359,0.1381,0.138,0.1379,0.1378,0,0.0661,0.0665,0.0605,0.0571,0.0583,0.0626,0.069,0.0728,0.0866,0.0992,0.1091,0.1155,0.1249,0.1318,0.1344,0.1358,0.1463,0.1414,0.1422,0.1404,0.1323,0.1342,0.1344,0.1364,0.1366,0.1367,0.1368,0,0.0573,0.0498,0.0423,0.0395,0.0397,0.0476,0.055,0.0625,0.0702,0.0925,0.0947,0.1108,0.1241,0.1241,0.1261,0.1269,0.1254,0.1206,0.1225,0.1241,0.117,0.1041,0.0998,0,0,0,0,0,0.0498,0.04,0.0283,0.0238,0.024,0.0318,0.0451,0.0545,0.0729,0.0771,0.0867,0.0953,0.1029,0.1085,0.1064,0.1146,0.1226,0.1108,0.1172,0.1288,0.1304,0.1233,0,0,0,0,0,0,0.0431,0.0305,0.0215,0.011,0.0113,0.0169,0.0291,0.0441,0.0481,0.0673,0.0725,0.0858,0.0942,0.104,0.1038,0.1052,0.1061,0.1197,0.1193,0.1279,0.1293,0.1306,0.1238,0,0,0,0,0]},{"header":{"parameterUnit":"m.s-1","parameterCategory":2,"la1":30.2991,"la2":30.254,"lo1":-89.0895,"lo2":-89.0444,"dy":0.0017,"dx":0.0017,"nx":28,"ny":28,"refTime":"2023-07-31T21:00:00:Z","depth":"4","parameterNumber":3,"parameterNumberName":"V-component_of_CURRENTS"},"data":[0,0,0,0,0,0,0,0,0,0,0,0,0,0,0,0,0,0,0,0,0,0,0,0,0,0,0,0,0,0,0,0,0,0,0,0,0,0,0,0,0,0,0,0,0,0,0,0,0,0,0,0,0,0,0,0,0,0,0.0099,0.0099,0,0.0095,0.0095,0.0095,0.0106,0.0106,0.0106,0.0106,0.0105,0.0104,0.0104,0,0,0,0,0,0,0,0,0,0,0,0,0,0.0081,0.0082,0.0099,0.0099,0.0099,0.0095,0.0095,0.0095,0.0106,0.0106,0.0106,0.0106,0.0105,0.0104,0.0104,0,0,0,0,0,0,0,0,0,0,0,0,0,0.0085,0.0082,0.0099,0.0103,0.0103,0.0095,0.0095,0.0095,0.0105,0.0106,0.0106,0.0106,0.0105,0.0104,0.0104,0.0095,0,0,0.0103,0.0103,0,0,0,0,0,0,0,0,0.0085,0.0086,0.0103,0.0103,0.0103,0.01,0.0088,0.0095,0.0105,0.0106,0.0106,0.0107,0.0102,0.0102,0.0102,0.0095,0.0094,0.0103,0.0103,0.0102,0.0102,0,0,0,0,0,0,0,0.0085,0.0086,0.0099,0.0102,0.0102,0.0092,0.0094,0.0089,0.0103,0.0106,0.0106,0.0104,0.0103,0.0103,0.0102,0.0094,0.0103,0.0102,0.0102,0.0102,0.0089,0.0089,0,0,0,0,0,0,0.0085,0.0086,0.0099,0.0098,0.0093,0.0092,0.0094,0.0102,0.0103,0.0103,0.0103,0.0104,0.0103,0.0103,0.0102,0.0111,0.0102,0.0102,0.0102,0.0089,0.0089,0.0089,0,0,0,0,0,0,0.0084,0.0086,0.0099,0.009,0.0091,0.0092,0.0101,0.0101,0.0103,0.0101,0.0102,0.0104,0.0103,0.0103,0.01,0.0111,0.0102,0.0102,0.0089,0.0089,0.0089,0.0116,0,0,0,0,0,0,0.0084,0.0086,0.0091,0.0091,0.0092,0.0098,0.01,0.0101,0.01,0.0101,0.0102,0.0102,0.0104,0.01,0.0099,0.011,0.0101,0.0089,0.0089,0.0089,0.0116,0.0117,0.0118,0,0,0,0,0,0.0084,0.0091,0.0092,0.0093,0.0099,0.0098,0.0098,0.01,0.01,0.0102,0.0101,0.0102,0.0098,0.01,0.0099,0.0109,0.0089,0.0089,0.0089,0.0115,0.0117,0.0118,0,0,0,0,0,0,0.0086,0.0092,0.0094,0.0103,0.0101,0.0099,0.01,0.0099,0.0099,0.01,0.0099,0.0099,0.0101,0.0096,0.0097,0.0103,0.0094,0.0094,0.0115,0.0116,0.0118,0.013,0.0101,0,0,0,0,0,0.0088,0.0097,0.0096,0.0104,0.0102,0.01,0.0098,0.01,0.0099,0.01,0.0099,0.0097,0.0097,0.01,0.0096,0.0098,0.0089,0.0103,0.0105,0.0106,0.0114,0.0109,0.0111,0.0088,0.0088,0.0088,0,0,0.009,0.0095,0.0099,0.0104,0.0103,0.0109,0.0101,0.0101,0.0109,0.0099,0.0106,0.01,0.0097,0.0102,0.0103,0.0102,0.0105,0.0106,0.0107,0.0115,0.0109,0.0111,0.0113,0.0088,0.0088,0.0088,0,0,0.0096,0.0102,0.0109,0.0111,0.0111,0.0113,0.0113,0.011,0.0112,0.0112,0.0111,0.011,0.0105,0.0113,0.0114,0.0119,0.011,0.0115,0.0139,0.0133,0.0136,0.0137,0.0119,0.0119,0.012,0.012,0.012,0,0.0098,0.0112,0.0109,0.0116,0.0125,0.0116,0.0129,0.0127,0.0124,0.0133,0.0117,0.0117,0.0113,0.013,0.0134,0.0125,0.0114,0.0135,0.0137,0.0138,0.014,0.012,0.012,0.0121,0.0121,0.0121,0.0121,0,0.0108,0.0122,0.0125,0.0139,0.0146,0.0154,0.0155,0.0159,0.0156,0.0158,0.0162,0.0146,0.0153,0.0147,0.0144,0.0157,0.0142,0.0137,0.0136,0.0144,0.0122,0.0121,0.0123,0.0123,0.0122,0.0122,0,0,0.0112,0.0131,0.0133,0.0154,0.0163,0.0177,0.0187,0.0205,0.0223,0.0203,0.0222,0.0211,0.0203,0.0203,0.0192,0.0186,0.0181,0.017,0.0169,0.0157,0.0159,0.0154,0.0152,0.0177,0.0177,0.0178,0.0136,0,0.0124,0.015,0.0158,0.0195,0.0211,0.022,0.0238,0.0252,0.0253,0.0264,0.0245,0.0254,0.0224,0.0229,0.0216,0.0198,0.0182,0.0192,0.0148,0.0146,0.0146,0.0152,0.0178,0.0135,0.0135,0.0135,0.0135,0,0.0131,0.0154,0.0187,0.0239,0.0248,0.0272,0.0316,0.0331,0.0341,0.0339,0.0335,0.0317,0.0312,0.0276,0.0238,0.0247,0.0206,0.0177,0.0175,0.0163,0.014,0.0127,0.0133,0.0133,0.0133,0.0133,0.0133,0,0.0139,0.0181,0.0216,0.023,0.0275,0.0305,0.0337,0.0358,0.0385,0.0393,0.0405,0.0381,0.0376,0.0325,0.0262,0.0255,0.0207,0.0191,0.014,0.0138,0.0143,0.0142,0.0155,0.0155,0.0155,0.0155,0.0155,0,0.0151,0.0182,0.0228,0.0249,0.0315,0.0335,0.0401,0.0419,0.0445,0.0484,0.0451,0.0453,0.039,0.035,0.0281,0.0212,0.0221,0.0147,0.0133,0.0153,0.0153,0.0142,0.0141,0.0153,0.0154,0.0154,0.0154,0,0.015,0.0173,0.0226,0.0289,0.0319,0.0368,0.0458,0.0498,0.0513,0.0557,0.0563,0.0523,0.047,0.0392,0.0309,0.0247,0.0176,0.0142,0.0166,0.0152,0.0101,0.0101,0.0087,0.0087,0.0087,0.0086,0.0086,0,0.0152,0.0173,0.0259,0.0309,0.0346,0.0427,0.0483,0.0529,0.0567,0.0592,0.0606,0.0567,0.053,0.0407,0.0315,0.0189,0.0162,0.0123,0.0113,0.011,0.0096,0.0098,0.0099,0.0085,0.0085,0.0085,0.0085,0,0.0162,0.0189,0.024,0.0337,0.0414,0.0499,0.0577,0.0605,0.0649,0.0667,0.065,0.0585,0.0518,0.0407,0.0314,0.0217,0.0153,0.0119,0.0118,0.0109,0.0107,0.0095,0.0096,0.0084,0.0084,0.0084,0.0084,0,0.0176,0.0212,0.0278,0.0376,0.0471,0.0545,0.0586,0.0635,0.0672,0.0687,0.0676,0.0601,0.056,0.0419,0.0328,0.0244,0.0212,0.0178,0.0174,0.0174,0.0209,0.022,0.0225,0,0,0,0,0,0.0183,0.0229,0.0316,0.0418,0.0514,0.0568,0.064,0.0666,0.07,0.0696,0.069,0.0625,0.0495,0.0426,0.0341,0.0306,0.0189,0.0201,0.0145,0.0077,0.0079,0.0105,0,0,0,0,0,0,0.019,0.0256,0.031,0.0441,0.0515,0.0612,0.0657,0.0675,0.0669,0.0683,0.061,0.06,0.0464,0.0549,0.0338,0.0312,0.0262,0.0146,0.0144,0.0076,0.0078,0.0079,0.0106,0,0,0,0,0]}]]